Location: B�rgermoos
(47.6500°N, 9.0667°E)
Time: 16:36:41
(UTC+00:00)

A-11 Canister half - Pass Details

Date: 11 August 2021
Orbit: 1526 x 1683 km, 47.3° (Epoch: 20 September)

Event Time Altitude Azimuth Distance (km) Brightness Sun altitude
Rises 06:31:54 0° 199° (SSW) 4,884 11.5 21.7°
Reaches altitude 10° 06:35:31 10° 190° (S) 3,915 11.1 22.3°
Maximum altitude 06:43:49 30° 134° (SE) 2,667 11.3 23.7°
Drops below altitude 10° 06:52:08 10° 78° (ENE) 3,945 12.7 25.1°
Sets 06:55:47 0° 69° (ENE) 4,928 12.6 25.7°
